GFSSW_prec_pwat_132.txt.gz
Precipitable_Water
0.62 0.62 0.64 0.64 0.64 0.64 0.62 0.61 0.63 0.63 0.61 0.55 0.52 0.47 0.43 0.45 0.42 0.37 0.20 0.29 0.38 0.52 0.79 0.74 0.88 1.08 1.23 1.26 1.45 1.55 1.17 1.02 1.10 1.12 1.19 1.35 1.18 1.29 1.25 1.07 1.09 1.16 1.08 1.23 1.39
0.66 0.62 0.61 0.62 0.63 0.62 0.61 0.59 0.60 0.60 0.62 0.57 0.52 0.50 0.45 0.45 0.35 0.25 0.26 0.27 0.37 0.58 0.62 0.59 0.70 0.98 1.02 1.14 1.15 1.25 1.09 1.13 1.32 1.32 1.24 1.34 1.28 1.20 1.10 1.05 1.05 1.10 1.23 1.33 1.36
0.64 0.63 0.62 0.59 0.60 0.60 0.58 0.57 0.58 0.60 0.60 0.57 0.53 0.51 0.49 0.47 0.31 0.35 0.52 0.37 0.39 0.55 0.51 0.57 0.70 0.94 0.93 1.02 1.09 1.13 1.10 1.31 1.37 1.40 1.37 1.39 1.34 1.34 1.05 0.87 0.99 1.04 1.11 1.22 1.28
0.64 0.62 0.61 0.60 0.58 0.57 0.56 0.58 0.60 0.60 0.61 0.58 0.52 0.51 0.48 0.45 0.24 0.42 0.59 0.42 0.45 0.51 0.44 0.49 0.64 0.85 0.86 0.90 1.08 1.03 1.25 1.29 1.44 1.47 1.41 1.35 1.42 1.17 1.15 1.04 1.06 1.16 1.20 1.17 1.23
0.65 0.62 0.58 0.55 0.54 0.52 0.55 0.58 0.61 0.62 0.62 0.61 0.52 0.52 0.46 0.32 0.34 0.57 0.67 0.45 0.40 0.39 0.39 0.46 0.60 0.83 0.82 0.84 0.93 0.95 1.13 1.24 1.44 1.50 1.49 1.48 1.38 1.26 1.18 1.22 1.14 1.16 1.17 1.22 1.31
0.64 0.61 0.56 0.52 0.50 0.51 0.57 0.59 0.60 0.63 0.64 0.60 0.51 0.54 0.45 0.30 0.62 0.65 0.57 0.44 0.32 0.35 0.35 0.52 0.71 0.82 0.74 0.85 0.87 1.01 1.03 1.14 1.32 1.43 1.47 1.32 1.40 1.44 1.44 1.33 1.13 1.16 1.17 1.25 1.30
0.59 0.56 0.53 0.49 0.49 0.54 0.57 0.58 0.60 0.64 0.68 0.59 0.56 0.60 0.42 0.40 0.65 0.60 0.48 0.38 0.30 0.29 0.33 0.44 0.72 0.70 0.68 0.86 1.02 0.99 0.88 1.01 1.10 1.29 1.39 1.48 1.27 1.27 1.53 1.41 1.14 1.17 1.20 1.27 1.33
0.50 0.49 0.48 0.47 0.47 0.53 0.55 0.56 0.60 0.68 0.68 0.64 0.69 0.58 0.32 0.54 0.65 0.55 0.54 0.37 0.30 0.27 0.31 0.42 0.74 0.67 0.77 1.09 0.98 0.88 0.86 0.73 0.96 1.10 1.37 1.44 1.13 1.41 1.51 1.40 1.20 1.17 1.16 1.19 1.29
0.48 0.48 0.47 0.45 0.46 0.51 0.53 0.63 0.69 0.68 0.67 0.72 0.63 0.55 0.40 0.62 0.47 0.52 0.56 0.45 0.34 0.27 0.28 0.44 0.55 0.62 0.82 0.75 0.68 0.74 0.68 0.75 0.87 1.09 1.12 1.26 1.16 1.42 1.51 1.50 1.41 1.21 1.16 1.16 1.22
0.52 0.50 0.47 0.45 0.48 0.51 0.61 0.67 0.74 0.76 0.72 0.70 0.60 0.46 0.46 0.43 0.48 0.51 0.51 0.36 0.30 0.24 0.21 0.33 0.54 0.50 0.60 0.67 0.50 0.54 0.55 0.70 0.85 0.99 1.02 1.01 1.16 1.39 1.46 1.45 1.45 1.35 1.16 1.12 1.16
0.55 0.51 0.47 0.45 0.50 0.59 0.63 0.60 0.53 0.49 0.53 0.36 0.36 0.35 0.40 0.48 0.48 0.43 0.43 0.24 0.23 0.21 0.17 0.29 0.34 0.36 0.50 0.67 0.64 0.60 0.59 0.65 0.83 1.09 0.92 0.90 1.02 1.26 1.44 1.47 1.43 1.45 1.30 1.08 1.16
0.56 0.51 0.46 0.45 0.53 0.64 0.66 0.48 0.50 0.53 0.41 0.48 0.45 0.45 0.49 0.53 0.39 0.45 0.41 0.33 0.19 0.18 0.22 0.26 0.25 0.44 0.58 0.68 0.57 0.54 0.62 0.63 0.79 0.94 0.89 0.85 0.91 1.24 1.35 1.46 1.44 1.40 1.32 1.15 1.15
0.57 0.53 0.46 0.45 0.57 0.65 0.57 0.55 0.65 0.64 0.45 0.45 0.49 0.45 0.45 0.49 0.38 0.38 0.45 0.38 0.26 0.21 0.20 0.21 0.29 0.52 0.48 0.49 0.49 0.54 0.58 0.65 0.67 0.82 0.89 0.83 0.80 1.03 1.26 1.45 1.50 1.44 1.36 1.24 1.12
0.58 0.55 0.47 0.50 0.56 0.57 0.53 0.63 0.68 0.67 0.41 0.41 0.46 0.47 0.47 0.45 0.36 0.44 0.49 0.43 0.31 0.27 0.25 0.26 0.41 0.41 0.43 0.42 0.49 0.48 0.62 0.69 0.66 0.63 0.62 0.87 0.58 0.87 1.07 1.23 1.36 1.30 1.37 1.19 1.14
0.57 0.56 0.48 0.56 0.56 0.50 0.59 0.67 0.68 0.58 0.26 0.44 0.44 0.58 0.49 0.41 0.38 0.38 0.47 0.38 0.30 0.29 0.28 0.30 0.34 0.38 0.40 0.43 0.48 0.54 0.65 0.69 0.67 0.61 0.62 0.70 0.68 0.85 1.01 1.09 1.22 1.33 1.30 1.21 1.10
0.56 0.55 0.50 0.48 0.57 0.58 0.70 0.68 0.61 0.36 0.27 0.41 0.45 0.43 0.42 0.44 0.38 0.36 0.38 0.41 0.35 0.30 0.29 0.37 0.36 0.41 0.41 0.48 0.50 0.66 0.61 0.65 0.64 0.60 0.42 0.64 0.68 0.77 0.85 1.01 1.18 1.36 1.40 1.26 1.16
0.55 0.52 0.48 0.53 0.52 0.71 0.66 0.58 0.37 0.25 0.37 0.37 0.41 0.46 0.43 0.41 0.35 0.36 0.33 0.32 0.30 0.27 0.25 0.28 0.29 0.32 0.39 0.36 0.46 0.53 0.48 0.40 0.37 0.41 0.42 0.68 0.68 0.79 0.93 1.02 1.12 1.28 1.36 1.38 1.38
0.53 0.51 0.53 0.62 0.68 0.69 0.61 0.44 0.27 0.29 0.31 0.40 0.43 0.45 0.41 0.41 0.39 0.34 0.31 0.30 0.35 0.32 0.29 0.25 0.23 0.28 0.37 0.36 0.41 0.43 0.45 0.38 0.34 0.43 0.54 0.67 0.59 0.82 0.93 1.05 1.12 1.20 1.33 1.44 1.49
0.51 0.49 0.53 0.66 0.74 0.69 0.51 0.33 0.29 0.31 0.37 0.36 0.42 0.41 0.41 0.43 0.43 0.33 0.32 0.36 0.41 0.39 0.34 0.26 0.31 0.39 0.48 0.44 0.47 0.44 0.40 0.53 0.52 0.62 0.53 0.60 0.73 0.90 0.85 0.99 1.12 1.18 1.26 1.39 1.49
0.42 0.46 0.55 0.74 0.78 0.64 0.44 0.33 0.35 0.40 0.41 0.37 0.35 0.38 0.38 0.42 0.41 0.35 0.34 0.41 0.43 0.44 0.43 0.37 0.38 0.50 0.59 0.62 0.55 0.60 0.61 0.46 0.46 0.44 0.44 0.52 0.58 0.66 0.68 0.85 1.03 1.10 1.25 1.38 1.55
0.43 0.37 0.63 0.75 0.73 0.56 0.37 0.37 0.37 0.42 0.45 0.36 0.34 0.38 0.41 0.43 0.45 0.39 0.41 0.47 0.50 0.48 0.47 0.45 0.41 0.47 0.59 0.59 0.64 0.55 0.53 0.53 0.56 0.55 0.51 0.50 0.64 0.69 0.80 0.85 0.99 1.07 1.23 1.42 1.54
0.39 0.31 0.65 0.71 0.50 0.51 0.42 0.42 0.41 0.41 0.42 0.39 0.39 0.41 0.42 0.44 0.46 0.45 0.43 0.49 0.52 0.50 0.45 0.47 0.43 0.42 0.50 0.58 0.68 0.75 0.72 0.59 0.47 0.49 0.60 0.63 0.55 0.88 0.87 0.97 1.02 1.06 1.20 1.39 1.54
0.42 0.43 0.66 0.64 0.43 0.45 0.48 0.41 0.45 0.41 0.39 0.35 0.33 0.34 0.43 0.43 0.43 0.46 0.49 0.52 0.55 0.51 0.50 0.49 0.42 0.38 0.39 0.46 0.54 0.54 0.60 0.61 0.62 0.74 0.55 0.49 0.54 0.94 0.96 1.00 1.08 1.12 1.21 1.36 1.52
0.47 0.40 0.51 0.57 0.57 0.52 0.47 0.42 0.43 0.47 0.42 0.36 0.37 0.38 0.38 0.38 0.41 0.46 0.46 0.53 0.54 0.55 0.52 0.52 0.45 0.40 0.41 0.48 0.63 0.49 0.56 0.57 0.52 0.45 0.45 0.48 0.55 0.74 0.89 0.92 1.03 1.13 1.26 1.38 1.47
0.51 0.44 0.60 0.43 0.45 0.49 0.54 0.51 0.43 0.39 0.45 0.43 0.41 0.39 0.37 0.35 0.37 0.37 0.43 0.49 0.51 0.51 0.51 0.49 0.47 0.50 0.51 0.50 0.49 0.54 0.58 0.58 0.53 0.57 0.49 0.68 0.63 0.74 0.86 0.91 0.98 1.13 1.23 1.34 1.44
0.55 0.49 0.62 0.61 0.58 0.53 0.55 0.52 0.47 0.45 0.41 0.41 0.41 0.41 0.41 0.36 0.35 0.40 0.40 0.41 0.43 0.51 0.48 0.49 0.47 0.50 0.53 0.57 0.59 0.51 0.55 0.54 0.67 0.59 0.61 0.64 0.64 0.90 1.00 1.04 1.01 1.07 1.21 1.29 1.41
0.72 0.69 0.56 0.56 0.57 0.51 0.50 0.50 0.52 0.51 0.43 0.44 0.45 0.45 0.43 0.46 0.46 0.44 0.41 0.45 0.49 0.45 0.47 0.43 0.44 0.43 0.42 0.57 0.53 0.48 0.58 0.60 0.64 0.62 0.62 0.57 0.85 0.92 0.92 0.93 0.97 1.05 1.13 1.21 1.36

GFSSW_prec_pwat_138.txt.gz
Precipitable_Water
0.64 0.61 0.61 0.62 0.61 0.61 0.59 0.60 0.60 0.60 0.60 0.59 0.53 0.47 0.43 0.43 0.38 0.34 0.25 0.42 0.50 0.59 0.65 0.80 0.89 0.94 1.11 1.26 1.57 1.83 1.17 1.09 1.09 1.18 1.24 1.53 1.20 1.17 1.23 0.96 1.18 1.25 1.29 1.26 1.38
0.63 0.62 0.60 0.57 0.58 0.59 0.57 0.58 0.60 0.60 0.59 0.58 0.54 0.49 0.45 0.43 0.34 0.33 0.41 0.35 0.38 0.49 0.60 0.72 0.69 0.86 0.94 1.25 1.26 1.33 1.10 1.13 1.26 1.30 1.22 1.42 1.48 1.38 1.03 1.02 1.03 1.17 1.41 1.28 1.36
0.63 0.60 0.58 0.56 0.54 0.54 0.54 0.57 0.59 0.60 0.59 0.58 0.54 0.49 0.45 0.46 0.40 0.44 0.48 0.34 0.26 0.40 0.62 0.73 0.67 0.77 0.97 1.14 1.15 1.19 1.20 1.40 1.38 1.40 1.42 1.45 1.39 1.51 1.16 0.97 1.06 1.00 1.12 1.21 1.29
0.63 0.60 0.57 0.54 0.52 0.51 0.55 0.59 0.60 0.59 0.59 0.58 0.55 0.48 0.46 0.57 0.37 0.66 0.60 0.35 0.26 0.42 0.61 0.58 0.57 0.57 0.86 1.00 1.30 0.85 1.24 1.28 1.34 1.37 1.37 1.46 1.42 1.32 1.22 1.32 1.36 1.25 1.16 1.20 1.25
0.61 0.58 0.54 0.50 0.49 0.52 0.56 0.59 0.59 0.57 0.56 0.56 0.52 0.46 0.54 0.55 0.50 0.72 0.45 0.32 0.27 0.40 0.49 0.46 0.48 0.69 0.91 1.03 1.12 0.96 1.09 1.16 1.24 1.30 1.41 1.52 1.44 1.32 1.27 1.33 1.27 1.17 1.19 1.17 1.35
0.55 0.54 0.51 0.48 0.47 0.52 0.55 0.57 0.57 0.57 0.55 0.51 0.48 0.57 0.58 0.51 0.65 0.66 0.36 0.29 0.35 0.39 0.39 0.45 0.50 0.73 0.96 1.03 1.01 1.27 1.46 1.06 1.17 1.24 1.29 1.41 1.37 1.33 1.23 1.35 1.20 1.08 1.16 1.23 1.38
0.50 0.50 0.48 0.46 0.46 0.51 0.54 0.55 0.58 0.62 0.60 0.58 0.62 0.68 0.63 0.50 0.56 0.55 0.40 0.32 0.37 0.36 0.33 0.45 0.58 0.75 0.87 0.80 1.02 1.11 1.18 1.00 0.95 1.03 1.12 1.29 1.14 1.18 1.31 1.33 1.31 1.02 1.14 1.23 1.27
0.52 0.51 0.48 0.46 0.45 0.49 0.52 0.53 0.59 0.64 0.63 0.60 0.66 0.70 0.39 0.52 0.59 0.48 0.44 0.37 0.29 0.34 0.35 0.39 0.60 0.71 0.72 0.99 1.02 0.76 0.89 0.75 1.14 1.09 1.09 1.03 0.87 1.26 1.38 1.37 1.29 1.11 1.17 1.25 1.40
0.54 0.51 0.47 0.45 0.45 0.51 0.55 0.57 0.62 0.64 0.63 0.66 0.74 0.76 0.49 0.56 0.42 0.53 0.51 0.36 0.30 0.25 0.31 0.34 0.37 0.50 0.58 0.78 0.77 0.68 0.56 0.79 0.88 1.40 1.08 1.01 0.93 1.17 1.39 1.33 1.29 1.32 1.19 1.49 1.28
0.54 0.51 0.47 0.44 0.47 0.56 0.59 0.66 0.64 0.65 0.78 0.79 0.70 0.63 0.56 0.45 0.45 0.48 0.51 0.44 0.25 0.23 0.21 0.23 0.31 0.37 0.52 0.53 0.52 0.73 0.75 0.76 0.83 1.25 1.12 1.04 1.02 1.22 1.33 1.33 1.25 1.34 1.28 1.46 1.52
0.56 0.51 0.47 0.43 0.52 0.59 0.63 0.71 0.69 0.61 0.63 0.47 0.45 0.39 0.41 0.42 0.46 0.45 0.40 0.31 0.31 0.23 0.17 0.20 0.25 0.30 0.44 0.57 0.77 0.78 0.80 0.80 0.94 0.95 1.12 0.97 1.02 1.14 1.20 1.30 1.29 1.30 1.21 1.35 1.31
0.57 0.52 0.46 0.44 0.54 0.61 0.66 0.60 0.55 0.54 0.46 0.42 0.40 0.40 0.46 0.49 0.39 0.38 0.32 0.22 0.22 0.19 0.18 0.20 0.21 0.34 0.46 0.52 0.64 0.73 0.69 0.68 0.90 0.95 0.86 0.86 0.85 1.06 1.13 1.15 1.23 1.33 1.35 1.34 1.40
0.58 0.55 0.47 0.47 0.55 0.56 0.57 0.58 0.63 0.65 0.52 0.47 0.47 0.48 0.46 0.52 0.42 0.39 0.32 0.38 0.21 0.20 0.18 0.19 0.23 0.30 0.41 0.48 0.61 0.63 0.62 0.70 0.73 0.75 0.82 0.72 0.75 1.00 1.17 1.20 1.27 1.34 1.40 1.43 1.39
0.59 0.55 0.49 0.50 0.52 0.63 0.55 0.62 0.66 0.74 0.48 0.47 0.45 0.43 0.46 0.47 0.35 0.39 0.48 0.44 0.32 0.23 0.22 0.21 0.27 0.28 0.33 0.37 0.56 0.45 0.65 0.73 0.64 0.57 0.49 0.80 0.53 0.88 1.07 1.14 1.21 1.31 1.32 1.41 1.29
0.62 0.55 0.50 0.53 0.60 0.54 0.61 0.62 0.61 0.68 0.39 0.50 0.47 0.52 0.47 0.43 0.41 0.37 0.42 0.40 0.37 0.30 0.25 0.23 0.24 0.33 0.40 0.46 0.48 0.43 0.62 0.60 0.63 0.61 0.55 0.54 0.56 0.79 1.10 1.08 1.15 1.29 1.33 1.29 1.26
0.64 0.55 0.50 0.41 0.55 0.56 0.60 0.59 0.60 0.46 0.40 0.44 0.45 0.44 0.40 0.42 0.33 0.36 0.34 0.42 0.38 0.31 0.30 0.34 0.39 0.35 0.37 0.42 0.45 0.51 0.57 0.61 0.64 0.60 0.40 0.47 0.56 0.79 0.88 0.95 1.17 1.27 1.37 1.24 1.24
0.63 0.56 0.48 0.43 0.50 0.65 0.62 0.52 0.39 0.38 0.46 0.39 0.43 0.46 0.44 0.43 0.35 0.33 0.33 0.32 0.31 0.29 0.28 0.28 0.28 0.33 0.38 0.38 0.44 0.45 0.41 0.34 0.35 0.35 0.40 0.68 0.61 0.76 0.99 1.07 1.20 1.21 1.13 1.13 1.24
0.59 0.55 0.42 0.34 0.50 0.60 0.56 0.43 0.35 0.51 0.36 0.43 0.39 0.43 0.41 0.41 0.39 0.33 0.33 0.33 0.35 0.33 0.35 0.28 0.26 0.31 0.33 0.35 0.39 0.41 0.39 0.33 0.39 0.45 0.54 0.68 0.63 0.82 1.01 1.05 1.15 1.31 1.21 1.24 1.15
0.59 0.50 0.38 0.34 0.46 0.62 0.49 0.35 0.44 0.52 0.38 0.34 0.42 0.39 0.46 0.44 0.41 0.39 0.33 0.39 0.42 0.39 0.33 0.39 0.29 0.33 0.31 0.29 0.33 0.37 0.37 0.38 0.41 0.50 0.48 0.61 0.74 0.96 1.01 0.95 0.96 1.17 1.24 1.26 1.29
0.53 0.43 0.47 0.43 0.55 0.54 0.41 0.37 0.50 0.49 0.40 0.35 0.33 0.49 0.49 0.51 0.42 0.37 0.35 0.38 0.42 0.41 0.44 0.44 0.42 0.50 0.32 0.37 0.32 0.35 0.47 0.41 0.37 0.32 0.38 0.69 0.65 0.65 0.86 1.21 1.10 1.12 1.24 1.36 1.43
0.55 0.40 0.50 0.58 0.58 0.48 0.34 0.39 0.50 0.49 0.40 0.34 0.34 0.38 0.42 0.51 0.47 0.45 0.42 0.46 0.45 0.47 0.37 0.42 0.38 0.44 0.50 0.48 0.41 0.41 0.36 0.57 0.63 0.55 0.49 0.52 0.59 0.90 1.05 1.13 1.22 1.10 1.26 1.32 1.26
0.52 0.40 0.65 0.67 0.39 0.44 0.38 0.45 0.54 0.49 0.43 0.37 0.37 0.40 0.45 0.49 0.42 0.43 0.43 0.53 0.56 0.46 0.42 0.49 0.48 0.45 0.54 0.68 0.65 0.50 0.48 0.56 0.48 0.52 0.70 0.63 0.71 1.05 1.09 1.29 1.12 1.11 1.26 1.64 1.38
0.61 0.54 0.73 0.66 0.36 0.38 0.44 0.46 0.55 0.51 0.43 0.39 0.36 0.36 0.40 0.44 0.40 0.54 0.53 0.61 0.57 0.48 0.48 0.53 0.41 0.35 0.51 0.69 0.74 0.54 0.52 0.57 0.57 0.61 0.59 0.58 0.70 0.89 0.98 1.33 1.39 1.18 1.09 1.17 1.28
0.67 0.48 0.59 0.70 0.57 0.45 0.47 0.49 0.49 0.51 0.42 0.45 0.40 0.39 0.38 0.35 0.45 0.48 0.49 0.53 0.54 0.45 0.46 0.48 0.44 0.37 0.36 0.49 0.62 0.50 0.58 0.63 0.56 0.46 0.47 0.55 0.74 0.89 0.92 1.09 1.22 1.28 1.30 1.20 1.24
0.72 0.53 0.57 0.52 0.59 0.50 0.52 0.55 0.57 0.49 0.48 0.45 0.43 0.37 0.39 0.39 0.39 0.42 0.44 0.47 0.59 0.56 0.46 0.37 0.34 0.40 0.47 0.57 0.59 0.54 0.53 0.57 0.58 0.63 0.54 0.61 0.66 0.72 0.75 0.88 1.13 1.26 1.29 1.23 1.28
0.71 0.73 0.75 0.64 0.71 0.69 0.49 0.49 0.56 0.63 0.52 0.50 0.42 0.42 0.41 0.39 0.44 0.46 0.47 0.46 0.47 0.58 0.57 0.49 0.38 0.42 0.36 0.49 0.57 0.54 0.59 0.55 0.56 0.61 0.74 0.67 0.68 0.94 0.99 1.12 1.15 1.17 1.19 1.19 1.26
0.99 0.94 0.79 0.59 0.63 0.63 0.64 0.52 0.53 0.60 0.63 0.58 0.53 0.47 0.45 0.46 0.48 0.48 0.50 0.52 0.51 0.53 0.52 0.50 0.49 0.45 0.39 0.55 0.52 0.46 0.60 0.64 0.70 0.73 0.71 0.56 0.74 0.86 0.84 1.09 1.07 1.14 1.15 1.17 1.19

GFSSW_prec_pwat_141.txt.gz
Precipitable_Water
0.62 0.61 0.59 0.58 0.58 0.58 0.57 0.59 0.60 0.60 0.59 0.59 0.57 0.52 0.45 0.43 0.37 0.34 0.23 0.42 0.53 0.59 0.61 0.66 0.95 0.94 1.09 1.16 1.61 1.78 1.19 1.03 1.11 1.17 1.21 1.45 1.22 1.33 1.34 1.24 1.26 1.17 1.17 1.17 1.50
0.60 0.58 0.57 0.57 0.55 0.55 0.54 0.58 0.59 0.59 0.59 0.58 0.58 0.53 0.47 0.43 0.33 0.23 0.32 0.41 0.47 0.51 0.51 0.63 0.71 0.82 0.85 1.24 1.62 1.30 1.02 1.06 1.25 1.36 1.29 1.45 1.42 1.21 1.18 1.17 1.09 1.16 1.31 1.25 1.40
0.61 0.57 0.55 0.54 0.53 0.52 0.54 0.58 0.59 0.58 0.58 0.58 0.56 0.52 0.47 0.46 0.36 0.41 0.42 0.37 0.37 0.42 0.47 0.64 0.71 0.65 0.68 1.10 1.50 1.41 0.90 1.16 1.27 1.43 1.45 1.39 1.35 1.44 1.23 1.08 1.09 1.15 1.20 1.22 1.26
0.60 0.57 0.53 0.50 0.49 0.50 0.55 0.58 0.59 0.56 0.55 0.57 0.55 0.48 0.47 0.58 0.35 0.61 0.63 0.50 0.37 0.32 0.47 0.63 0.62 0.64 0.66 0.81 1.30 1.05 1.27 1.19 1.33 1.38 1.44 1.38 1.54 1.47 1.31 1.34 1.46 1.26 1.21 1.21 1.23
0.54 0.54 0.51 0.48 0.47 0.51 0.55 0.58 0.57 0.56 0.54 0.54 0.51 0.52 0.61 0.60 0.53 0.76 0.51 0.43 0.25 0.26 0.45 0.55 0.51 0.66 0.66 0.86 1.13 1.45 1.20 1.33 1.29 1.30 1.48 1.52 1.51 1.35 1.28 1.44 1.47 1.34 1.20 1.17 1.21
0.51 0.49 0.49 0.47 0.46 0.51 0.53 0.56 0.56 0.54 0.53 0.50 0.50 0.61 0.58 0.48 0.70 0.62 0.32 0.27 0.23 0.29 0.38 0.52 0.56 0.60 0.63 0.96 1.11 1.31 1.07 1.26 1.24 1.23 1.31 1.29 1.35 1.40 1.36 1.36 1.36 1.15 1.09 1.23 1.48
0.52 0.50 0.48 0.46 0.45 0.49 0.51 0.53 0.55 0.56 0.62 0.63 0.65 0.70 0.59 0.45 0.54 0.50 0.34 0.24 0.33 0.37 0.36 0.44 0.53 0.51 0.79 0.84 1.18 1.10 0.84 1.03 1.20 1.10 1.12 1.28 1.08 1.09 1.38 1.38 1.20 1.14 1.12 1.26 1.41
0.54 0.51 0.47 0.45 0.45 0.48 0.51 0.52 0.56 0.61 0.63 0.64 0.67 0.70 0.43 0.54 0.53 0.46 0.41 0.33 0.32 0.36 0.35 0.38 0.45 0.58 0.76 0.99 1.02 0.99 0.94 0.92 1.24 1.28 1.34 1.19 0.77 1.09 1.43 1.38 1.22 1.16 1.13 1.15 1.34
0.55 0.52 0.47 0.44 0.46 0.53 0.54 0.53 0.57 0.63 0.66 0.75 0.76 0.78 0.55 0.58 0.42 0.49 0.40 0.35 0.30 0.27 0.28 0.33 0.36 0.52 0.59 0.58 0.69 0.88 0.77 0.79 0.96 1.17 1.14 1.07 0.93 1.07 1.31 1.37 1.24 1.22 1.15 1.26 1.33
0.58 0.52 0.47 0.44 0.50 0.59 0.62 0.67 0.72 0.67 0.77 0.84 0.69 0.56 0.62 0.44 0.44 0.48 0.53 0.49 0.28 0.22 0.21 0.22 0.23 0.31 0.40 0.52 0.50 0.66 0.68 0.85 0.90 1.01 1.20 0.98 0.97 1.16 1.22 1.31 1.29 1.23 1.25 1.30 1.34
0.58 0.55 0.48 0.45 0.53 0.61 0.63 0.68 0.66 0.61 0.56 0.43 0.50 0.48 0.42 0.44 0.43 0.40 0.43 0.33 0.31 0.25 0.16 0.18 0.18 0.19 0.28 0.48 0.59 0.76 0.74 0.75 0.88 0.94 1.03 0.95 0.86 1.04 1.10 1.19 1.26 1.35 1.19 1.27 1.22
0.60 0.56 0.49 0.45 0.54 0.61 0.65 0.57 0.56 0.54 0.43 0.57 0.49 0.43 0.48 0.46 0.40 0.38 0.34 0.24 0.22 0.20 0.19 0.18 0.15 0.24 0.39 0.46 0.52 0.69 0.71 0.81 1.00 1.08 1.12 0.96 0.85 0.92 1.03 1.03 1.11 1.31 1.38 1.23 1.30
0.63 0.55 0.50 0.46 0.53 0.55 0.53 0.58 0.67 0.66 0.50 0.53 0.50 0.46 0.46 0.50 0.44 0.36 0.28 0.29 0.24 0.20 0.19 0.16 0.20 0.26 0.33 0.39 0.46 0.57 0.66 0.68 0.70 0.85 0.96 0.90 0.75 0.87 1.07 1.14 1.14 1.20 1.40 1.47 1.42
0.64 0.57 0.51 0.47 0.47 0.58 0.57 0.65 0.72 0.70 0.47 0.50 0.46 0.44 0.46 0.48 0.37 0.43 0.41 0.39 0.35 0.23 0.22 0.20 0.24 0.24 0.26 0.34 0.42 0.54 0.74 0.72 0.69 0.67 0.54 0.77 0.47 0.75 0.98 1.06 1.08 1.09 1.22 1.40 1.45
0.58 0.62 0.52 0.50 0.48 0.50 0.58 0.59 0.65 0.69 0.33 0.50 0.48 0.57 0.50 0.42 0.40 0.38 0.42 0.40 0.33 0.33 0.27 0.22 0.24 0.25 0.28 0.29 0.43 0.47 0.59 0.56 0.57 0.54 0.54 0.56 0.57 0.63 1.02 1.01 1.04 1.08 1.18 1.28 1.40
0.60 0.59 0.54 0.44 0.48 0.56 0.58 0.58 0.63 0.46 0.35 0.45 0.48 0.45 0.39 0.41 0.36 0.37 0.32 0.40 0.42 0.32 0.31 0.28 0.37 0.31 0.31 0.39 0.45 0.49 0.50 0.50 0.51 0.49 0.39 0.54 0.63 0.71 0.84 0.99 1.04 1.19 1.24 1.32 1.38
0.69 0.56 0.56 0.48 0.28 0.61 0.59 0.52 0.40 0.35 0.51 0.42 0.40 0.46 0.44 0.42 0.36 0.33 0.31 0.32 0.30 0.27 0.27 0.31 0.32 0.34 0.35 0.32 0.39 0.42 0.40 0.34 0.36 0.38 0.38 0.59 0.54 0.69 0.89 0.99 1.06 1.13 1.23 1.31 1.25
0.69 0.57 0.52 0.41 0.37 0.50 0.55 0.38 0.30 0.48 0.53 0.44 0.41 0.44 0.38 0.46 0.41 0.35 0.34 0.33 0.38 0.35 0.31 0.31 0.29 0.32 0.36 0.33 0.35 0.38 0.36 0.29 0.28 0.31 0.43 0.58 0.50 0.77 1.04 1.13 1.19 1.24 1.33 1.33 1.21
0.67 0.52 0.50 0.40 0.33 0.54 0.44 0.27 0.38 0.48 0.48 0.36 0.36 0.36 0.42 0.46 0.44 0.43 0.33 0.34 0.39 0.39 0.33 0.36 0.32 0.35 0.32 0.31 0.35 0.35 0.34 0.41 0.34 0.42 0.39 0.54 0.64 0.81 1.02 1.08 1.15 1.22 1.35 1.27 1.20
0.68 0.48 0.40 0.53 0.38 0.45 0.37 0.28 0.42 0.51 0.51 0.40 0.29 0.40 0.47 0.51 0.47 0.44 0.37 0.38 0.42 0.43 0.41 0.43 0.37 0.45 0.38 0.34 0.30 0.31 0.37 0.34 0.46 0.37 0.32 0.49 0.59 0.59 0.78 0.96 1.11 1.12 1.29 1.35 1.20
0.80 0.61 0.59 0.57 0.47 0.39 0.29 0.29 0.44 0.52 0.52 0.41 0.32 0.36 0.41 0.49 0.54 0.46 0.43 0.42 0.45 0.46 0.38 0.41 0.41 0.47 0.45 0.47 0.44 0.42 0.37 0.44 0.53 0.56 0.43 0.44 0.60 0.88 0.91 1.00 1.13 1.28 1.40 1.38 1.28
0.76 0.55 0.71 0.68 0.44 0.41 0.33 0.36 0.52 0.52 0.51 0.44 0.38 0.37 0.39 0.46 0.46 0.47 0.47 0.50 0.52 0.49 0.39 0.48 0.44 0.41 0.53 0.64 0.65 0.57 0.52 0.48 0.42 0.43 0.52 0.56 0.60 0.92 0.96 1.04 1.21 1.40 1.51 1.59 1.59
0.66 0.62 0.80 0.77 0.50 0.42 0.40 0.38 0.51 0.50 0.52 0.45 0.37 0.37 0.39 0.40 0.43 0.46 0.54 0.62 0.60 0.54 0.49 0.47 0.41 0.39 0.48 0.57 0.62 0.56 0.59 0.56 0.48 0.52 0.45 0.41 0.49 0.88 0.90 0.99 1.11 1.33 1.45 1.28 1.65
0.66 0.53 0.64 0.72 0.69 0.57 0.47 0.39 0.46 0.56 0.53 0.48 0.44 0.40 0.36 0.34 0.41 0.43 0.50 0.58 0.58 0.55 0.51 0.43 0.38 0.41 0.34 0.46 0.57 0.47 0.54 0.56 0.55 0.42 0.44 0.51 0.59 0.73 0.82 0.90 1.02 1.13 1.33 1.50 1.49
0.71 0.53 0.75 0.60 0.67 0.69 0.64 0.49 0.45 0.49 0.62 0.52 0.42 0.45 0.38 0.34 0.38 0.39 0.47 0.55 0.55 0.55 0.52 0.45 0.28 0.39 0.43 0.50 0.53 0.53 0.52 0.52 0.53 0.56 0.46 0.52 0.55 0.69 0.78 0.82 0.96 1.09 1.21 1.33 1.26
0.67 0.68 0.73 0.71 0.71 0.64 0.64 0.55 0.50 0.55 0.62 0.58 0.46 0.45 0.42 0.36 0.41 0.44 0.46 0.47 0.45 0.52 0.51 0.54 0.32 0.39 0.38 0.46 0.54 0.55 0.62 0.59 0.64 0.60 0.60 0.63 0.63 0.75 0.77 0.97 1.00 1.01 1.14 1.20 1.28
0.88 0.91 0.77 0.63 0.65 0.63 0.65 0.62 0.57 0.60 0.62 0.71 0.64 0.52 0.44 0.44 0.45 0.49 0.51 0.51 0.47 0.48 0.56 0.54 0.51 0.44 0.36 0.49 0.53 0.50 0.60 0.59 0.64 0.74 0.68 0.59 0.71 0.89 0.86 0.98 1.01 1.06 1.11 1.03 1.20

GFSSW_prec_pwat_144.txt.gz
Precipitable_Water
0.60 0.59 0.58 0.55 0.55 0.55 0.55 0.57 0.59 0.59 0.60 0.60 0.58 0.53 0.46 0.45 0.38 0.33 0.30 0.42 0.54 0.64 0.65 0.67 1.00 1.11 1.06 1.33 1.54 1.63 1.10 1.01 1.13 1.17 1.27 1.42 1.29 1.38 1.44 1.31 1.23 1.23 1.18 1.34 1.57
0.61 0.58 0.56 0.53 0.52 0.51 0.54 0.57 0.59 0.58 0.58 0.59 0.58 0.54 0.48 0.44 0.33 0.20 0.24 0.43 0.55 0.59 0.55 0.64 0.80 0.90 0.81 1.23 1.48 1.38 1.04 1.04 1.24 1.33 1.28 1.32 1.33 1.36 1.30 1.18 1.18 1.18 1.37 1.42 1.65
0.60 0.57 0.53 0.50 0.49 0.50 0.54 0.58 0.59 0.56 0.55 0.56 0.57 0.53 0.47 0.45 0.32 0.38 0.33 0.35 0.49 0.53 0.53 0.62 0.74 0.80 0.68 1.03 1.33 1.41 1.15 1.21 1.25 1.39 1.44 1.33 1.38 1.52 1.30 1.08 1.13 1.15 1.21 1.31 1.40
0.55 0.54 0.52 0.49 0.48 0.51 0.55 0.58 0.57 0.56 0.55 0.56 0.55 0.48 0.53 0.57 0.31 0.57 0.63 0.52 0.46 0.46 0.48 0.61 0.70 0.72 0.70 0.83 1.40 1.20 1.47 1.29 1.29 1.45 1.45 1.40 1.53 1.36 1.37 1.36 1.32 1.24 1.27 1.25 1.34
0.51 0.50 0.49 0.48 0.47 0.50 0.54 0.57 0.56 0.53 0.52 0.52 0.50 0.59 0.66 0.54 0.48 0.74 0.65 0.48 0.42 0.33 0.42 0.61 0.61 0.70 0.58 0.84 1.03 1.06 1.30 1.26 1.32 1.34 1.40 1.47 1.36 1.40 1.29 1.44 1.48 1.40 1.24 1.23 1.38
0.52 0.50 0.48 0.47 0.45 0.49 0.52 0.55 0.55 0.51 0.55 0.55 0.60 0.70 0.60 0.36 0.70 0.61 0.36 0.34 0.24 0.24 0.39 0.57 0.56 0.59 0.60 0.85 0.95 1.12 1.20 1.25 1.15 1.23 1.36 1.36 1.40 1.49 1.43 1.51 1.42 1.34 1.17 1.21 1.38
0.54 0.51 0.48 0.45 0.44 0.48 0.50 0.53 0.55 0.55 0.62 0.61 0.65 0.67 0.50 0.38 0.57 0.48 0.31 0.22 0.23 0.29 0.39 0.50 0.55 0.57 0.64 0.91 1.26 1.14 0.95 1.15 1.30 1.18 1.11 1.32 1.16 1.17 1.42 1.48 1.35 1.31 1.16 1.16 1.33
0.57 0.52 0.48 0.46 0.46 0.49 0.50 0.52 0.55 0.59 0.63 0.68 0.74 0.76 0.45 0.65 0.58 0.44 0.38 0.32 0.32 0.38 0.41 0.45 0.46 0.61 0.65 1.08 1.12 1.02 1.07 0.84 1.21 1.31 1.25 1.14 0.85 1.11 1.45 1.42 1.33 1.26 1.20 1.19 1.37
0.59 0.54 0.50 0.46 0.50 0.53 0.54 0.54 0.63 0.68 0.75 0.78 0.71 0.73 0.46 0.62 0.40 0.44 0.45 0.35 0.32 0.30 0.31 0.34 0.40 0.56 0.59 0.64 0.77 0.90 0.79 0.95 0.93 1.13 1.11 1.07 0.94 1.15 1.39 1.40 1.33 1.28 1.27 1.27 1.23
0.61 0.57 0.50 0.47 0.56 0.62 0.63 0.66 0.72 0.70 0.75 0.80 0.72 0.49 0.53 0.40 0.42 0.43 0.49 0.46 0.30 0.23 0.24 0.26 0.30 0.45 0.52 0.52 0.47 0.67 0.75 0.82 0.80 1.00 1.03 0.98 0.96 1.13 1.19 1.34 1.34 1.30 1.33 1.36 1.35
0.64 0.58 0.52 0.48 0.57 0.62 0.63 0.62 0.59 0.55 0.56 0.41 0.45 0.44 0.49 0.45 0.44 0.36 0.41 0.39 0.29 0.22 0.16 0.18 0.16 0.21 0.39 0.53 0.58 0.64 0.72 0.70 0.86 1.01 1.01 0.93 0.89 1.02 1.09 1.22 1.28 1.35 1.37 1.28 1.37
0.61 0.58 0.52 0.47 0.54 0.61 0.64 0.51 0.53 0.58 0.42 0.55 0.50 0.51 0.55 0.48 0.38 0.40 0.35 0.24 0.24 0.18 0.20 0.17 0.14 0.16 0.27 0.44 0.42 0.45 0.69 0.75 0.84 0.95 0.86 0.91 0.90 1.01 1.05 1.10 1.17 1.30 1.37 1.38 1.36
0.57 0.61 0.53 0.46 0.50 0.54 0.54 0.56 0.68 0.68 0.48 0.50 0.52 0.47 0.45 0.48 0.40 0.39 0.35 0.27 0.22 0.19 0.20 0.18 0.19 0.24 0.33 0.37 0.36 0.42 0.62 0.72 0.75 0.73 0.92 0.88 0.82 0.91 1.08 1.17 1.17 1.27 1.37 1.45 1.36
0.66 0.56 0.57 0.44 0.42 0.50 0.53 0.64 0.65 0.68 0.42 0.46 0.49 0.49 0.48 0.47 0.40 0.46 0.39 0.33 0.28 0.24 0.23 0.19 0.23 0.24 0.28 0.31 0.36 0.44 0.79 0.70 0.75 0.62 0.50 0.81 0.52 0.75 0.90 0.98 1.11 1.12 1.27 1.40 1.45
0.67 0.63 0.57 0.51 0.42 0.44 0.56 0.59 0.65 0.64 0.27 0.49 0.47 0.54 0.49 0.40 0.38 0.36 0.41 0.39 0.30 0.30 0.31 0.22 0.21 0.24 0.25 0.30 0.40 0.50 0.63 0.63 0.67 0.56 0.51 0.56 0.54 0.61 0.88 0.89 1.07 1.15 1.21 1.37 1.49
0.66 0.66 0.59 0.51 0.40 0.50 0.57 0.56 0.59 0.42 0.28 0.43 0.49 0.44 0.43 0.42 0.39 0.37 0.35 0.38 0.40 0.34 0.32 0.28 0.32 0.32 0.31 0.33 0.40 0.51 0.59 0.59 0.58 0.52 0.36 0.50 0.51 0.52 0.78 0.97 1.12 1.27 1.23 1.32 1.44
0.71 0.64 0.65 0.51 0.25 0.51 0.54 0.49 0.35 0.32 0.50 0.40 0.42 0.44 0.43 0.40 0.38 0.36 0.34 0.33 0.30 0.27 0.28 0.31 0.32 0.36 0.35 0.30 0.33 0.40 0.41 0.32 0.36 0.38 0.33 0.55 0.51 0.61 0.88 1.03 1.13 1.21 1.30 1.28 1.39
0.76 0.67 0.61 0.48 0.45 0.49 0.50 0.35 0.29 0.42 0.45 0.49 0.44 0.42 0.39 0.43 0.39 0.38 0.36 0.32 0.36 0.34 0.30 0.29 0.28 0.33 0.35 0.33 0.30 0.35 0.38 0.30 0.23 0.28 0.30 0.45 0.38 0.58 0.92 1.05 1.16 1.27 1.39 1.38 1.38
0.79 0.69 0.56 0.45 0.48 0.47 0.40 0.23 0.25 0.44 0.46 0.39 0.36 0.37 0.37 0.45 0.42 0.40 0.37 0.34 0.36 0.37 0.32 0.32 0.27 0.36 0.36 0.33 0.33 0.34 0.30 0.36 0.32 0.36 0.32 0.43 0.55 0.75 0.84 0.96 1.13 1.21 1.29 1.40 1.41
0.75 0.71 0.64 0.58 0.50 0.39 0.34 0.24 0.37 0.52 0.48 0.43 0.32 0.36 0.36 0.45 0.44 0.43 0.40 0.39 0.39 0.41 0.43 0.40 0.32 0.36 0.37 0.34 0.37 0.33 0.39 0.29 0.37 0.28 0.29 0.45 0.50 0.52 0.69 0.83 1.03 1.12 1.22 1.36 1.47
0.80 0.62 0.76 0.77 0.50 0.42 0.29 0.27 0.44 0.52 0.50 0.44 0.40 0.34 0.38 0.42 0.51 0.51 0.45 0.44 0.46 0.43 0.43 0.41 0.41 0.46 0.43 0.40 0.40 0.37 0.36 0.45 0.49 0.47 0.32 0.32 0.43 0.76 0.81 0.87 0.97 1.07 1.19 1.31 1.50
0.73 0.49 0.77 0.76 0.46 0.42 0.31 0.34 0.39 0.48 0.51 0.49 0.42 0.39 0.39 0.38 0.46 0.48 0.48 0.49 0.50 0.49 0.43 0.46 0.42 0.39 0.46 0.59 0.61 0.56 0.50 0.47 0.35 0.38 0.47 0.41 0.36 0.82 0.88 0.90 0.89 0.93 1.04 1.28 1.51
0.60 0.54 0.71 0.69 0.45 0.47 0.50 0.39 0.40 0.48 0.50 0.48 0.43 0.42 0.41 0.38 0.38 0.49 0.52 0.57 0.56 0.51 0.48 0.47 0.42 0.38 0.41 0.47 0.57 0.53 0.56 0.57 0.55 0.54 0.40 0.33 0.34 0.73 0.87 0.88 0.89 0.87 1.01 1.25 1.50
0.65 0.44 0.61 0.67 0.63 0.57 0.55 0.51 0.41 0.56 0.54 0.53 0.49 0.46 0.36 0.37 0.37 0.42 0.45 0.56 0.58 0.57 0.56 0.52 0.40 0.36 0.32 0.38 0.46 0.47 0.48 0.55 0.53 0.43 0.46 0.48 0.49 0.64 0.78 0.83 0.88 0.92 1.10 1.27 1.49
0.68 0.59 0.69 0.55 0.59 0.65 0.63 0.56 0.50 0.54 0.59 0.56 0.51 0.42 0.39 0.33 0.35 0.36 0.45 0.51 0.55 0.56 0.51 0.48 0.33 0.31 0.40 0.45 0.48 0.46 0.48 0.50 0.47 0.50 0.46 0.57 0.58 0.62 0.70 0.79 0.92 1.10 1.17 1.27 1.35
0.66 0.68 0.69 0.60 0.68 0.64 0.61 0.56 0.52 0.56 0.58 0.52 0.52 0.54 0.45 0.38 0.36 0.35 0.43 0.46 0.49 0.53 0.51 0.52 0.36 0.38 0.40 0.50 0.50 0.48 0.53 0.55 0.56 0.58 0.59 0.59 0.56 0.72 0.79 0.91 1.00 1.10 1.25 1.29 1.25
0.80 0.80 0.72 0.55 0.55 0.57 0.58 0.62 0.62 0.65 0.63 0.61 0.60 0.59 0.52 0.45 0.45 0.44 0.48 0.49 0.51 0.49 0.51 0.52 0.47 0.42 0.35 0.45 0.47 0.44 0.50 0.53 0.56 0.60 0.57 0.53 0.65 0.77 0.79 0.90 0.97 1.08 1.17 1.13 1.23

GFSSW_prec_pwat_147.txt.gz
Precipitable_Water
0.60 0.57 0.56 0.54 0.53 0.52 0.54 0.58 0.59 0.58 0.58 0.58 0.58 0.55 0.49 0.47 0.40 0.42 0.36 0.44 0.58 0.67 0.67 0.86 1.02 0.96 1.08 1.29 1.45 1.60 1.08 0.99 1.07 1.11 1.21 1.45 1.37 1.40 1.42 1.24 1.16 1.19 1.18 1.32 1.56
0.60 0.58 0.54 0.52 0.51 0.51 0.55 0.58 0.59 0.58 0.56 0.55 0.56 0.53 0.50 0.45 0.34 0.20 0.31 0.46 0.58 0.67 0.58 0.71 0.87 0.88 0.85 1.12 1.33 1.23 1.07 1.03 1.25 1.27 1.26 1.41 1.42 1.43 1.23 1.19 1.11 1.20 1.29 1.41 1.54
0.57 0.55 0.52 0.50 0.50 0.52 0.56 0.58 0.57 0.56 0.56 0.57 0.55 0.51 0.46 0.48 0.39 0.33 0.29 0.42 0.56 0.59 0.59 0.71 0.84 0.75 0.71 0.93 1.24 1.30 1.11 1.22 1.23 1.43 1.50 1.40 1.40 1.51 1.27 1.01 1.14 1.09 1.12 1.30 1.44
0.52 0.51 0.50 0.49 0.48 0.51 0.55 0.57 0.55 0.53 0.52 0.54 0.49 0.52 0.62 0.61 0.26 0.53 0.57 0.48 0.57 0.53 0.54 0.65 0.74 0.67 0.64 0.68 1.13 1.07 1.26 1.30 1.26 1.44 1.44 1.37 1.49 1.36 1.38 1.25 1.26 1.21 1.22 1.25 1.33
0.53 0.51 0.48 0.47 0.46 0.50 0.53 0.55 0.53 0.50 0.51 0.52 0.60 0.67 0.67 0.51 0.45 0.73 0.62 0.50 0.49 0.47 0.50 0.64 0.67 0.57 0.62 0.82 1.03 0.98 1.21 1.23 1.25 1.39 1.48 1.48 1.39 1.34 1.35 1.44 1.48 1.46 1.27 1.24 1.36
0.55 0.52 0.48 0.46 0.45 0.49 0.52 0.53 0.52 0.53 0.58 0.62 0.66 0.73 0.55 0.29 0.62 0.66 0.45 0.42 0.35 0.38 0.47 0.63 0.55 0.59 0.58 0.77 0.88 1.07 1.14 1.15 1.17 1.20 1.32 1.33 1.37 1.49 1.41 1.52 1.50 1.40 1.24 1.26 1.40
0.58 0.54 0.50 0.48 0.46 0.50 0.50 0.52 0.53 0.56 0.60 0.62 0.67 0.67 0.49 0.36 0.59 0.52 0.32 0.27 0.23 0.29 0.47 0.53 0.58 0.54 0.65 0.90 1.20 1.21 0.97 1.16 1.25 1.27 1.18 1.37 1.10 1.22 1.43 1.53 1.41 1.27 1.20 1.22 1.41
0.61 0.56 0.52 0.49 0.50 0.51 0.51 0.53 0.55 0.64 0.68 0.73 0.81 0.78 0.47 0.66 0.60 0.45 0.40 0.31 0.31 0.39 0.47 0.49 0.53 0.56 0.76 1.09 1.05 0.99 1.00 0.85 1.13 1.25 1.23 1.20 0.88 1.20 1.48 1.44 1.39 1.38 1.28 1.25 1.35
0.64 0.58 0.52 0.51 0.53 0.54 0.55 0.59 0.64 0.70 0.71 0.77 0.69 0.60 0.40 0.65 0.40 0.40 0.44 0.36 0.32 0.35 0.38 0.43 0.46 0.54 0.83 0.72 0.83 0.98 0.77 0.79 0.94 1.21 1.12 1.11 0.95 1.17 1.45 1.42 1.33 1.27 1.25 1.39 1.29
0.63 0.60 0.53 0.52 0.59 0.63 0.65 0.72 0.78 0.78 0.78 0.80 0.73 0.48 0.48 0.41 0.41 0.43 0.47 0.43 0.32 0.28 0.27 0.31 0.38 0.46 0.55 0.51 0.46 0.67 0.74 0.82 0.80 1.05 1.02 0.97 0.98 1.13 1.27 1.38 1.37 1.32 1.30 1.36 1.36
0.58 0.60 0.54 0.49 0.59 0.63 0.62 0.60 0.54 0.48 0.59 0.42 0.41 0.43 0.46 0.52 0.49 0.39 0.44 0.37 0.28 0.22 0.19 0.24 0.26 0.37 0.44 0.58 0.56 0.77 0.61 0.73 0.83 0.98 0.93 0.88 0.91 1.03 1.12 1.25 1.28 1.35 1.40 1.37 1.35
0.64 0.57 0.56 0.48 0.53 0.59 0.62 0.48 0.51 0.54 0.41 0.51 0.50 0.49 0.54 0.49 0.39 0.33 0.41 0.29 0.23 0.18 0.20 0.18 0.15 0.31 0.51 0.54 0.50 0.44 0.48 0.68 0.84 0.95 0.89 0.90 0.89 1.04 1.09 1.13 1.24 1.28 1.36 1.41 1.44
0.65 0.62 0.56 0.49 0.45 0.51 0.52 0.53 0.67 0.63 0.45 0.48 0.53 0.49 0.46 0.52 0.41 0.36 0.35 0.26 0.22 0.19 0.18 0.16 0.17 0.17 0.28 0.42 0.39 0.35 0.37 0.54 0.69 0.80 0.89 0.86 0.81 0.96 1.13 1.17 1.24 1.32 1.39 1.42 1.47
0.67 0.64 0.58 0.52 0.34 0.45 0.45 0.62 0.62 0.67 0.41 0.43 0.47 0.49 0.46 0.46 0.38 0.46 0.39 0.29 0.25 0.24 0.24 0.21 0.23 0.20 0.23 0.31 0.31 0.27 0.62 0.71 0.59 0.59 0.52 0.82 0.50 0.71 0.93 1.00 1.12 1.27 1.31 1.38 1.51
0.73 0.65 0.63 0.56 0.37 0.36 0.49 0.57 0.62 0.63 0.25 0.47 0.47 0.55 0.50 0.39 0.40 0.38 0.42 0.34 0.29 0.29 0.29 0.25 0.22 0.24 0.27 0.34 0.31 0.37 0.68 0.59 0.57 0.58 0.61 0.56 0.53 0.62 0.92 0.90 1.08 1.20 1.31 1.40 1.52
0.78 0.72 0.65 0.57 0.47 0.41 0.54 0.58 0.55 0.38 0.26 0.42 0.45 0.42 0.43 0.42 0.38 0.40 0.36 0.40 0.38 0.33 0.33 0.27 0.32 0.30 0.33 0.40 0.41 0.59 0.64 0.61 0.61 0.63 0.48 0.50 0.47 0.49 0.71 0.85 1.07 1.26 1.31 1.37 1.46
0.81 0.73 0.69 0.63 0.35 0.42 0.53 0.48 0.28 0.29 0.46 0.40 0.39 0.42 0.41 0.40 0.40 0.37 0.35 0.32 0.31 0.26 0.26 0.29 0.30 0.33 0.35 0.31 0.38 0.55 0.51 0.38 0.38 0.40 0.35 0.52 0.45 0.54 0.75 0.92 1.03 1.20 1.31 1.35 1.41
0.84 0.73 0.72 0.64 0.58 0.45 0.46 0.36 0.22 0.39 0.43 0.48 0.42 0.42 0.38 0.41 0.42 0.39 0.35 0.32 0.36 0.34 0.31 0.29 0.26 0.35 0.34 0.32 0.29 0.32 0.39 0.32 0.26 0.28 0.31 0.45 0.32 0.52 0.82 0.96 1.09 1.23 1.34 1.40 1.42
0.92 0.76 0.68 0.69 0.64 0.47 0.37 0.23 0.22 0.42 0.48 0.41 0.39 0.38 0.37 0.42 0.42 0.40 0.35 0.35 0.36 0.36 0.31 0.30 0.30 0.39 0.36 0.33 0.35 0.30 0.30 0.37 0.32 0.35 0.28 0.37 0.52 0.71 0.77 0.84 0.96 1.07 1.22 1.31 1.42
0.86 0.74 0.74 0.83 0.73 0.49 0.37 0.26 0.28 0.50 0.51 0.47 0.33 0.34 0.32 0.38 0.40 0.41 0.37 0.40 0.37 0.40 0.41 0.37 0.32 0.39 0.36 0.37 0.40 0.32 0.38 0.31 0.36 0.25 0.24 0.36 0.42 0.46 0.66 0.69 0.86 0.94 1.07 1.24 1.41
0.80 0.57 0.73 0.82 0.63 0.46 0.38 0.31 0.32 0.51 0.56 0.45 0.40 0.38 0.35 0.37 0.41 0.41 0.44 0.46 0.45 0.42 0.43 0.42 0.38 0.41 0.47 0.37 0.35 0.39 0.36 0.42 0.44 0.41 0.29 0.28 0.33 0.63 0.64 0.72 0.77 0.85 0.91 1.07 1.22
0.70 0.45 0.73 0.71 0.41 0.42 0.39 0.38 0.37 0.46 0.55 0.50 0.47 0.45 0.38 0.37 0.39 0.46 0.47 0.49 0.50 0.48 0.41 0.45 0.42 0.38 0.40 0.50 0.55 0.54 0.47 0.45 0.35 0.35 0.42 0.40 0.35 0.69 0.71 0.76 0.80 0.86 0.96 1.09 1.20
0.60 0.57 0.78 0.68 0.37 0.38 0.41 0.38 0.35 0.42 0.49 0.49 0.49 0.49 0.47 0.41 0.34 0.46 0.49 0.54 0.54 0.50 0.47 0.50 0.42 0.34 0.39 0.45 0.53 0.48 0.55 0.56 0.55 0.53 0.42 0.37 0.38 0.76 0.77 0.74 0.81 0.87 0.97 1.06 1.26
0.62 0.48 0.61 0.65 0.63 0.54 0.51 0.50 0.46 0.54 0.53 0.54 0.52 0.51 0.45 0.41 0.39 0.41 0.47 0.53 0.58 0.55 0.54 0.52 0.45 0.37 0.32 0.37 0.43 0.43 0.49 0.54 0.50 0.42 0.43 0.45 0.48 0.62 0.70 0.74 0.79 0.86 0.97 1.05 1.23
0.65 0.58 0.68 0.51 0.56 0.58 0.58 0.54 0.49 0.44 0.52 0.56 0.51 0.50 0.47 0.39 0.36 0.36 0.41 0.51 0.57 0.59 0.52 0.47 0.38 0.38 0.33 0.39 0.45 0.45 0.47 0.50 0.48 0.47 0.40 0.46 0.48 0.55 0.68 0.72 0.78 0.95 1.03 1.07 1.12
0.62 0.61 0.69 0.57 0.60 0.58 0.56 0.53 0.53 0.55 0.51 0.50 0.52 0.55 0.55 0.44 0.37 0.36 0.39 0.43 0.44 0.52 0.47 0.49 0.37 0.38 0.38 0.45 0.44 0.44 0.48 0.50 0.54 0.55 0.54 0.57 0.55 0.70 0.78 0.82 0.85 0.96 1.09 1.06 1.14
0.79 0.77 0.65 0.53 0.53 0.45 0.49 0.58 0.60 0.65 0.58 0.62 0.60 0.59 0.57 0.54 0.51 0.44 0.45 0.47 0.49 0.46 0.47 0.48 0.43 0.39 0.34 0.42 0.46 0.42 0.49 0.50 0.54 0.58 0.56 0.48 0.59 0.75 0.72 0.84 0.93 1.00 1.10 1.14 1.25